Airali, Italy

10:35 AM CET on February 27, 2017 (GMT +0100)
Levaldigi

Weather History for LIMZ - April, 2013

Change the Weather History Date:

Monday, April 1, 2013

  Actual Average (LIMK) Record (LIMK)
Temperature  
Mean Temperature 42 °F -  
Max Temperature 44 °F 56 °F 66 °F (2011)
Min Temperature 41 °F 43 °F 35 °F (2013)
Degree Days  
Heating Degree Days 22    
Moisture  
Dew Point 39 °F    
Average Humidity 87    
Maximum Humidity 93    
Minimum Humidity 76    
Precipitation  
Precipitation 0.00 in - - ()
Sea Level Pressure  
Sea Level Pressure 29.66 in    
Wind  
Wind Speed 4 mph ()    
Max Wind Speed 8 mph    
Max Gust Speed -    
Visibility 4.2 miles    
Events Rain    
Averages and records for this station are not official NWS values.
T = Trace of Precipitation, MM = Missing Value Source: Averaged Metar Reports

Daily Weather History Graph

Daily Weather History Graph

Search for Another Location

Airport or City:

Trip Planner

Search our weather history database for the weather conditions in past years. The results will help you decide how hot, cold, wet, or windy it might be!

Date:

Astronomy

Apr. 01, 2013 Rise Set
Actual Time 7:10 AM CEST 7:56 PM CEST
Civil Twilight 6:41 AM CEST 8:26 PM CEST
Nautical Twilight 6:06 AM CEST 9:01 PM CEST
Astronomical Twilight 5:29 AM CEST 9:38 PM CEST
Moon 12:58 AM CEST (4/1) 10:30 AM CEST (4/1)
Length of Visible Light 13h 45m
Length of Day
12h 46m
Waning Gibbous, 70% of the Moon is Illuminated
Apr 1
Waning Gibbous
Apr 3
Last Quarter
Apr 10
New
Apr 18
First Quarter
Apr 25
Full

Hourly Weather History & Observations

Time (CEST) Temp. Windchill Dew Point Humidity Pressure Visibility Wind Dir Wind Speed Gust Speed Precip Events Conditions
5:50 AM 42.8 °F 40.1 °F 39.2 °F 87% 29.62 in 6.2 mi North 4.6 mph - N/A   Mostly Cloudy
6:50 AM 42.8 °F 39.3 °F 37.4 °F 81% 29.65 in 6.2 mi North 5.8 mph - N/A   Mostly Cloudy
7:50 AM 42.8 °F 41.1 °F 37.4 °F 81% 29.65 in 6.2 mi North 3.5 mph - N/A   Overcast
9:50 AM 42.8 °F 41.1 °F 39.2 °F 87% 29.68 in 6.2 mi North 3.5 mph - N/A   Overcast
10:03 AM 41.0 °F 38.0 °F 39.2 °F 93% 29.68 in 3.1 mi NNW 4.6 mph - N/A   Drizzle
10:50 AM 41.0 °F 39.0 °F 39.2 °F 93% 29.68 in 3.1 mi NW 3.5 mph - N/A   Drizzle
11:50 AM 42.8 °F 38.6 °F 39.2 °F 87% 29.68 in 4.3 mi NW 6.9 mph - N/A   Mostly Cloudy
12:50 PM 44.6 °F 40.7 °F 39.2 °F 81% 29.68 in 5.0 mi North 6.9 mph - N/A   Mostly Cloudy
1:50 PM 44.6 °F 41.4 °F 37.4 °F 76% 29.68 in 5.0 mi NW 5.8 mph - N/A   Mostly Cloudy
2:50 PM 44.6 °F 41.4 °F 37.4 °F 76% 29.68 in 5.6 mi NNW 5.8 mph - N/A   Mostly Cloudy
3:50 PM 44.6 °F 40.2 °F 41.0 °F 87% 29.65 in 4.3 mi North 8.1 mph - N/A   Mostly Cloudy
4:50 PM 42.8 °F 41.1 °F 41.0 °F 93% 29.65 in 3.7 mi Variable 3.5 mph - N/A   Mostly Cloudy
5:50 PM 42.8 °F 41.1 °F 41.0 °F 93% 29.65 in 3.1 mi Variable 3.5 mph - N/A   Overcast
6:50 PM 42.8 °F 41.1 °F 41.0 °F 93% 29.65 in 3.1 mi Variable 3.5 mph - N/A   Overcast
7:50 PM 42.8 °F 41.1 °F 39.2 °F 87% 29.65 in 3.1 mi Variable 3.5 mph - N/A   Overcast
8:50 PM 42.8 °F 39.3 °F 39.2 °F 87% 29.65 in 3.1 mi NW 5.8 mph - N/A   Overcast
9:50 PM 42.8 °F 39.3 °F 39.2 °F 87% 29.65 in 3.1 mi NW 5.8 mph - N/A   Overcast
10:50 PM 41.0 °F 37.1 °F 39.2 °F 93% 29.65 in 3.1 mi WNW 5.8 mph - N/A Rain Rain
11:50 PM 41.0 °F 37.1 °F 39.2 °F 93% 29.65 in 3.1 mi WNW 5.8 mph - N/A Rain Rain